Time,TemperatureF,DewpointF,PressureIn,WindDirection,WindDirectionDegrees,WindSpeedMPH,WindSpeedGustMPH,Humidity,HourlyPrecipIn,Conditions,Clouds,dailyrainin,SoftwareType,DateUTC
2013-04-07 00:00:00,30.0,13.2,30.23,NW,315,0.0,0.0,49,0.00,,---,0.00,VWS V14.01,2013-04-07 04:00:00,
2013-04-07 00:05:00,30.2,13.4,30.23,NW,315,0.0,0.0,49,0.00,,---,0.00,VWS V14.01,2013-04-07 04:05:00,
2013-04-07 00:10:00,30.2,13.4,30.23,NW,315,0.0,0.0,49,0.00,,---,0.00,VWS V14.01,2013-04-07 04:10:00,
2013-04-07 00:15:00,30.2,13.8,30.23,NW,315,0.0,0.0,50,0.00,,---,0.00,VWS V14.01,2013-04-07 04:15:00,
2013-04-07 00:20:00,30.2,13.8,30.23,NW,315,0.0,0.0,50,0.00,,---,0.00,VWS V14.01,2013-04-07 04:20:00,
2013-04-07 00:25:00,30.2,13.8,30.23,NW,315,0.0,0.0,50,0.00,,---,0.00,VWS V14.01,2013-04-07 04:25:00,
2013-04-07 00:30:00,30.3,13.9,30.22,NW,315,0.0,0.0,50,0.00,,---,0.00,VWS V14.01,2013-04-07 04:30:00,
2013-04-07 00:35:00,30.3,13.9,30.22,NW,315,0.0,0.0,50,0.00,,---,0.00,VWS V14.01,2013-04-07 04:35:00,
2013-04-07 00:40:00,30.3,13.9,30.22,East,90,0.0,0.0,50,0.00,,---,0.00,VWS V14.01,2013-04-07 04:40:00,
2013-04-07 00:45:00,30.5,14.1,30.22,East,90,0.0,0.0,50,0.00,,---,0.00,VWS V14.01,2013-04-07 04:45:00,
2013-04-07 00:50:00,30.7,13.8,30.21,East,90,0.0,0.0,49,0.00,,---,0.00,VWS V14.01,2013-04-07 04:50:00,
2013-04-07 00:55:00,30.7,13.8,30.21,East,90,0.0,0.0,49,0.00,,---,0.00,VWS V14.01,2013-04-07 04:55:00,
2013-04-07 01:00:00,30.7,13.8,30.21,East,90,0.0,0.0,49,0.00,,---,0.00,VWS V14.01,2013-04-07 05:00:00,
2013-04-07 01:05:00,30.9,14.0,30.20,SE,135,0.0,0.0,49,0.00,,---,0.00,VWS V14.01,2013-04-07 05:05:00,
2013-04-07 01:10:00,31.1,13.7,30.20,SE,135,0.0,0.0,48,0.00,,---,0.00,VWS V14.01,2013-04-07 05:10:00,
2013-04-07 01:15:00,31.2,13.8,30.20,SE,135,0.0,0.0,48,0.00,,---,0.00,VWS V14.01,2013-04-07 05:15:00,
2013-04-07 01:20:00,31.8,13.9,30.19,SE,135,0.0,0.0,47,0.00,,---,0.00,VWS V14.01,2013-04-07 05:20:00,
2013-04-07 01:25:00,32.1,13.7,30.19,SE,135,0.0,0.0,46,0.00,,---,0.00,VWS V14.01,2013-04-07 05:25:00,
2013-04-07 01:30:00,32.5,14.0,30.19,SSE,158,0.0,0.0,46,0.00,,---,0.00,VWS V14.01,2013-04-07 05:30:00,
2013-04-07 01:35:00,32.7,13.7,30.18,SE,135,0.0,0.0,45,0.00,,---,0.00,VWS V14.01,2013-04-07 05:35:00,
2013-04-07 01:40:00,33.2,13.7,30.18,South,180,0.0,0.0,44,0.00,,---,0.00,VWS V14.01,2013-04-07 05:40:00,
2013-04-07 01:45:00,33.4,13.9,30.18,SE,135,0.0,0.0,44,0.00,,---,0.00,VWS V14.01,2013-04-07 05:45:00,
2013-04-07 01:50:00,33.6,13.5,30.19,SSE,158,0.0,0.0,43,0.00,,---,0.00,VWS V14.01,2013-04-07 05:50:00,
2013-04-07 01:56:00,33.8,13.7,30.19,South,180,0.0,0.0,43,0.00,,---,0.00,VWS V14.01,2013-04-07 05:56:00,
2013-04-07 02:01:00,33.9,13.8,30.18,SE,135,0.0,0.0,43,0.00,,---,0.00,VWS V14.01,2013-04-07 06:01:00,
2013-04-07 02:06:00,33.9,13.8,30.18,SSE,158,0.0,0.0,43,0.00,,---,0.00,VWS V14.01,2013-04-07 06:06:00,
2013-04-07 02:11:00,33.9,13.8,30.18,SE,135,0.0,0.0,43,0.00,,---,0.00,VWS V14.01,2013-04-07 06:11:00,
2013-04-07 02:16:00,33.8,13.7,30.18,SE,135,0.0,0.0,43,0.00,,---,0.00,VWS V14.01,2013-04-07 06:16:00,
2013-04-07 02:21:00,33.8,13.7,30.17,SE,135,0.0,0.0,43,0.00,,---,0.00,VWS V14.01,2013-04-07 06:21:00,
2013-04-07 02:26:00,33.6,13.5,30.17,SE,135,0.0,0.0,43,0.00,,---,0.00,VWS V14.01,2013-04-07 06:26:00,
2013-04-07 02:31:00,33.6,13.5,30.17,SSE,158,0.0,0.0,43,0.00,,---,0.00,VWS V14.01,2013-04-07 06:31:00,
2013-04-07 02:35:00,33.6,13.5,30.17,SE,135,0.0,0.0,43,0.00,,---,0.00,VWS V14.01,2013-04-07 06:35:00,
2013-04-07 02:40:00,33.6,13.5,30.17,SSE,158,0.0,0.0,43,0.00,,---,0.00,VWS V14.01,2013-04-07 06:40:00,
2013-04-07 02:46:00,33.6,13.5,30.17,NW,315,0.0,0.0,43,0.00,,---,0.00,VWS V14.01,2013-04-07 06:46:00,
2013-04-07 02:51:00,33.6,13.5,30.17,SE,135,0.0,0.0,43,0.00,,---,0.00,VWS V14.01,2013-04-07 06:51:00,
2013-04-07 02:56:00,33.8,13.7,30.17,SE,135,0.0,0.0,43,0.00,,---,0.00,VWS V14.01,2013-04-07 06:56:00,
2013-04-07 03:01:00,33.8,13.7,30.16,SE,135,0.0,0.0,43,0.00,,---,0.00,VWS V14.01,2013-04-07 07:01:00,
2013-04-07 03:06:00,33.8,13.7,30.16,SE,135,0.2,0.2,43,0.00,,---,0.00,VWS V14.01,2013-04-07 07:06:00,
2013-04-07 03:11:00,33.9,13.8,30.15,SE,135,0.0,0.0,43,0.00,,---,0.00,VWS V14.01,2013-04-07 07:11:00,
2013-04-07 03:16:00,34.1,13.4,30.15,SE,135,7.1,7.1,42,0.00,,---,0.00,VWS V14.01,2013-04-07 07:16:00,
2013-04-07 03:21:00,34.3,13.6,30.15,SE,135,0.0,0.0,42,0.00,,---,0.00,VWS V14.01,2013-04-07 07:21:00,
2013-04-07 03:26:00,34.3,13.6,30.15,SE,135,6.0,6.0,42,0.00,,---,0.00,VWS V14.01,2013-04-07 07:26:00,
2013-04-07 03:31:00,34.7,14.0,30.14,SE,135,0.0,0.0,42,0.00,,---,0.00,VWS V14.01,2013-04-07 07:31:00,
2013-04-07 03:36:00,34.8,14.1,30.14,SSE,158,7.6,7.6,42,0.00,,---,0.00,VWS V14.01,2013-04-07 07:36:00,
2013-04-07 03:41:00,34.8,14.1,30.14,SE,135,0.0,0.0,42,0.00,,---,0.00,VWS V14.01,2013-04-07 07:41:00,
2013-04-07 03:47:00,35.2,14.4,30.13,SE,135,6.0,6.0,42,0.00,,---,0.00,VWS V14.01,2013-04-07 07:47:00,
2013-04-07 03:52:00,35.2,14.4,30.13,SE,135,0.0,0.0,42,0.00,,---,0.00,VWS V14.01,2013-04-07 07:52:00,
2013-04-07 03:57:00,35.4,14.6,30.13,SE,135,0.0,0.0,42,0.00,,---,0.00,VWS V14.01,2013-04-07 07:57:00,
2013-04-07 04:02:00,35.4,14.6,30.14,SSE,158,0.8,0.8,42,0.00,,---,0.00,VWS V14.01,2013-04-07 08:02:00,
2013-04-07 04:07:00,35.4,14.6,30.13,SE,135,0.0,0.0,42,0.00,,---,0.00,VWS V14.01,2013-04-07 08:07:00,
2013-04-07 04:12:00,35.4,14.6,30.13,SE,135,0.0,0.0,42,0.00,,---,0.00,VWS V14.01,2013-04-07 08:12:00,
2013-04-07 04:17:00,35.6,14.2,30.13,South,180,0.0,0.0,41,0.00,,---,0.00,VWS V14.01,2013-04-07 08:17:00,
2013-04-07 04:22:00,35.7,14.3,30.12,South,180,0.0,0.0,41,0.00,,---,0.00,VWS V14.01,2013-04-07 08:22:00,
2013-04-07 04:27:00,35.7,14.3,30.12,SE,135,0.0,0.0,41,0.00,,---,0.00,VWS V14.01,2013-04-07 08:27:00,
2013-04-07 04:32:00,35.7,14.3,30.12,SSE,158,0.0,0.0,41,0.00,,---,0.00,VWS V14.01,2013-04-07 08:32:00,
2013-04-07 04:37:00,35.7,14.3,30.13,SE,135,0.0,0.0,41,0.00,,---,0.00,VWS V14.01,2013-04-07 08:37:00,
2013-04-07 04:42:00,35.7,14.3,30.13,South,180,0.0,0.0,41,0.00,,---,0.00,VWS V14.01,2013-04-07 08:42:00,
2013-04-07 04:47:00,35.7,14.3,30.14,SE,135,0.0,0.0,41,0.00,,---,0.00,VWS V14.01,2013-04-07 08:47:00,
2013-04-07 04:52:00,35.9,14.5,30.13,SSE,158,0.0,0.0,41,0.00,,---,0.00,VWS V14.01,2013-04-07 08:52:00,
2013-04-07 04:57:00,36.1,14.7,30.14,South,180,1.5,1.5,41,0.00,,---,0.00,VWS V14.01,2013-04-07 08:57:00,
2013-04-07 05:02:00,36.1,14.7,30.14,SE,135,0.0,0.0,41,0.00,,---,0.00,VWS V14.01,2013-04-07 09:02:00,
2013-04-07 05:07:00,36.1,14.7,30.14,SE,135,0.0,0.0,41,0.00,,---,0.00,VWS V14.01,2013-04-07 09:07:00,
2013-04-07 05:12:00,36.1,14.7,30.14,SE,135,0.0,0.0,41,0.00,,---,0.00,VWS V14.01,2013-04-07 09:12:00,
2013-04-07 05:17:00,36.3,14.9,30.14,SE,135,0.0,0.0,41,0.00,,---,0.00,VWS V14.01,2013-04-07 09:17:00,
2013-04-07 05:22:00,36.3,14.9,30.13,SE,135,0.0,0.0,41,0.00,,---,0.00,VWS V14.01,2013-04-07 09:22:00,
2013-04-07 05:27:00,36.3,14.9,30.13,SE,135,0.0,0.0,41,0.00,,---,0.00,VWS V14.01,2013-04-07 09:27:00,
2013-04-07 05:32:00,36.3,15.4,30.13,SE,135,6.0,6.0,42,0.00,,---,0.00,VWS V14.01,2013-04-07 09:32:00,
2013-04-07 05:37:00,36.3,14.9,30.13,SE,135,0.2,0.2,41,0.00,,---,0.00,VWS V14.01,2013-04-07 09:37:00,
2013-04-07 05:42:00,36.3,15.4,30.13,SE,135,0.0,0.0,42,0.00,,---,0.00,VWS V14.01,2013-04-07 09:42:00,
2013-04-07 05:47:00,36.3,15.4,30.13,SE,135,0.0,0.0,42,0.00,,---,0.00,VWS V14.01,2013-04-07 09:47:00,
2013-04-07 05:52:00,36.3,16.0,30.13,SE,135,0.0,0.0,43,0.00,,---,0.00,VWS V14.01,2013-04-07 09:52:00,
2013-04-07 05:57:00,36.1,16.3,30.13,SE,135,0.0,0.0,44,0.00,,---,0.00,VWS V14.01,2013-04-07 09:57:00,
2013-04-07 06:02:00,36.1,16.8,30.13,SE,135,0.0,0.0,45,0.00,,---,0.00,VWS V14.01,2013-04-07 10:02:00,
2013-04-07 06:07:00,35.9,17.1,30.12,SE,135,0.0,0.0,46,0.00,,---,0.00,VWS V14.01,2013-04-07 10:07:00,
2013-04-07 06:12:00,35.7,18.0,30.12,SE,135,0.0,0.0,48,0.00,,---,0.00,VWS V14.01,2013-04-07 10:12:00,
2013-04-07 06:17:00,35.4,18.1,30.11,SE,135,0.0,0.0,49,0.00,,---,0.00,VWS V14.01,2013-04-07 10:17:00,
2013-04-07 06:22:00,35.4,18.1,30.10,SE,135,0.0,0.0,49,0.00,,---,0.00,VWS V14.01,2013-04-07 10:22:00,
2013-04-07 06:27:00,35.2,18.4,30.09,SSE,158,0.0,0.0,50,0.00,,---,0.00,VWS V14.01,2013-04-07 10:27:00,
2013-04-07 06:32:00,35.2,18.9,30.08,ESE,112,0.0,0.0,51,0.00,,---,0.00,VWS V14.01,2013-04-07 10:32:00,
2013-04-07 06:37:00,35.2,19.4,30.08,North,0,0.0,0.0,52,0.00,,---,0.00,VWS V14.01,2013-04-07 10:37:00,
2013-04-07 06:42:00,35.2,20.2,30.08,ESE,112,0.0,0.0,54,0.00,,---,0.00,VWS V14.01,2013-04-07 10:42:00,
2013-04-07 06:47:00,35.2,20.7,30.08,SE,135,0.0,0.0,55,0.00,,---,0.00,VWS V14.01,2013-04-07 10:47:00,
2013-04-07 06:52:00,35.2,20.7,30.08,SSE,158,0.0,0.0,55,0.00,,---,0.00,VWS V14.01,2013-04-07 10:52:00,
2013-04-07 06:57:00,35.4,20.9,30.07,SE,135,0.0,0.0,55,0.00,,---,0.00,VWS V14.01,2013-04-07 10:57:00,
2013-04-07 07:02:00,35.6,21.5,30.07,SSE,158,0.0,5.1,56,0.00,,---,0.00,VWS V14.01,2013-04-07 11:02:00,
2013-04-07 07:07:00,35.7,22.0,30.06,SE,135,0.0,0.0,57,0.00,,---,0.00,VWS V14.01,2013-04-07 11:07:00,
2013-04-07 07:12:00,35.9,22.6,30.06,SE,135,0.0,0.0,58,0.00,,---,0.00,VWS V14.01,2013-04-07 11:12:00,
2013-04-07 07:17:00,36.1,22.4,30.06,SE,135,0.0,0.0,57,0.00,,---,0.00,VWS V14.01,2013-04-07 11:17:00,
2013-04-07 07:22:00,35.9,22.6,30.06,SE,135,0.0,0.0,58,0.00,,---,0.00,VWS V14.01,2013-04-07 11:22:00,
2013-04-07 07:27:00,35.9,23.0,30.06,SE,135,11.8,11.8,59,0.00,,---,0.00,VWS V14.01,2013-04-07 11:27:00,
2013-04-07 07:32:00,36.3,23.8,30.07,WNW,292,0.0,0.0,60,0.00,,---,0.00,VWS V14.01,2013-04-07 11:32:00,
2013-04-07 07:37:00,36.5,24.0,30.06,SE,135,0.0,0.0,60,0.00,,---,0.00,VWS V14.01,2013-04-07 11:37:00,
2013-04-07 07:42:00,36.6,24.0,30.06,SE,135,0.0,0.0,60,0.00,,---,0.00,VWS V14.01,2013-04-07 11:42:00,
2013-04-07 07:47:00,36.8,24.2,30.06,WSW,248,0.0,0.0,60,0.00,,---,0.00,VWS V14.01,2013-04-07 11:47:00,
2013-04-07 07:52:00,37.0,24.4,30.04,SE,135,0.0,0.0,60,0.00,,---,0.00,VWS V14.01,2013-04-07 11:52:00,
2013-04-07 07:58:00,37.0,24.4,30.04,South,180,0.0,0.0,60,0.00,,---,0.00,VWS V14.01,2013-04-07 11:58:00,
2013-04-07 08:03:00,37.2,24.6,30.04,WSW,248,0.0,0.0,60,0.00,,---,0.00,VWS V14.01,2013-04-07 12:03:00,
2013-04-07 08:08:00,37.2,24.6,30.04,WSW,248,0.0,0.0,60,0.00,,---,0.00,VWS V14.01,2013-04-07 12:08:00,
2013-04-07 08:13:00,37.4,24.8,30.05,SE,135,0.0,0.0,60,0.00,,---,0.00,VWS V14.01,2013-04-07 12:13:00,
2013-04-07 08:18:00,37.5,24.5,30.05,SSW,202,0.0,0.0,59,0.00,,---,0.00,VWS V14.01,2013-04-07 12:18:00,
2013-04-07 08:23:00,37.5,24.5,30.05,SSW,202,0.0,0.0,59,0.00,,---,0.00,VWS V14.01,2013-04-07 12:23:00,
2013-04-07 08:28:00,37.5,24.5,30.05,ESE,112,0.0,0.0,59,0.00,,---,0.00,VWS V14.01,2013-04-07 12:28:00,
2013-04-07 08:33:00,37.7,24.7,30.07,ESE,112,0.0,0.0,59,0.00,,---,0.00,VWS V14.01,2013-04-07 12:33:00,
2013-04-07 08:38:00,37.9,24.5,30.06,SE,135,0.0,0.0,58,0.00,,---,0.00,VWS V14.01,2013-04-07 12:38:00,
2013-04-07 08:43:00,37.7,24.3,30.05,SSE,158,7.3,7.3,58,0.00,,---,0.00,VWS V14.01,2013-04-07 12:43:00,
2013-04-07 08:48:00,37.7,23.9,30.05,SE,135,0.0,0.0,57,0.00,,---,0.00,VWS V14.01,2013-04-07 12:48:00,
2013-04-07 08:53:00,37.7,23.9,30.05,SE,135,0.0,0.0,57,0.00,,---,0.00,VWS V14.01,2013-04-07 12:53:00,
2013-04-07 08:58:00,37.7,23.9,30.04,SE,135,11.4,11.4,57,0.00,,---,0.00,VWS V14.01,2013-04-07 12:58:00,
2013-04-07 09:03:00,38.1,24.2,30.04,SE,135,0.0,0.0,57,0.00,,---,0.00,VWS V14.01,2013-04-07 13:03:00,
2013-04-07 09:08:00,38.4,24.1,30.03,South,180,2.9,2.9,56,0.00,,---,0.00,VWS V14.01,2013-04-07 13:08:00,
2013-04-07 09:13:00,38.8,24.5,30.03,SE,135,1.1,1.1,56,0.00,,---,0.00,VWS V14.01,2013-04-07 13:13:00,
2013-04-07 09:18:00,39.0,24.2,30.02,SE,135,0.0,0.0,55,0.00,,---,0.00,VWS V14.01,2013-04-07 13:18:00,
2013-04-07 09:23:00,39.3,24.5,30.02,SE,135,0.6,0.6,55,0.00,,---,0.00,VWS V14.01,2013-04-07 13:23:00,
2013-04-07 09:28:00,39.5,24.7,30.02,SSE,158,4.2,4.2,55,0.00,,---,0.00,VWS V14.01,2013-04-07 13:28:00,
2013-04-07 09:33:00,39.9,24.6,30.01,SSE,158,0.0,0.0,54,0.00,,---,0.00,VWS V14.01,2013-04-07 13:33:00,
2013-04-07 09:38:00,40.2,24.5,30.00,SE,135,6.7,6.7,53,0.00,,---,0.00,VWS V14.01,2013-04-07 13:38:00,
2013-04-07 09:43:00,40.6,24.8,30.00,SSE,158,11.1,11.1,53,0.00,,---,0.00,VWS V14.01,2013-04-07 13:43:00,
2013-04-07 09:48:00,41.0,25.2,30.00,SE,135,0.0,0.0,53,0.00,,---,0.00,VWS V14.01,2013-04-07 13:48:00,
2013-04-07 09:53:00,41.1,24.8,30.00,SSE,158,4.2,4.2,52,0.00,,---,0.00,VWS V14.01,2013-04-07 13:53:00,
2013-04-07 09:58:00,41.7,25.4,30.01,SSE,158,0.0,0.0,52,0.00,,---,0.00,VWS V14.01,2013-04-07 13:58:00,
2013-04-07 10:03:00,42.4,25.6,30.01,SE,135,0.0,0.0,51,0.00,,---,0.00,VWS V14.01,2013-04-07 14:03:00,
2013-04-07 10:08:00,42.6,25.8,30.01,SE,135,0.0,0.0,51,0.00,,---,0.00,VWS V14.01,2013-04-07 14:08:00,
2013-04-07 10:13:00,42.9,26.0,30.01,SSE,158,0.0,0.0,51,0.00,,---,0.00,VWS V14.01,2013-04-07 14:13:00,
2013-04-07 10:18:00,43.3,25.9,30.00,WNW,292,0.0,0.0,50,0.00,,---,0.00,VWS V14.01,2013-04-07 14:18:00,
2013-04-07 10:23:00,43.5,26.1,30.00,SE,135,2.4,2.4,50,0.00,,---,0.00,VWS V14.01,2013-04-07 14:23:00,
2013-04-07 10:28:00,43.8,26.4,30.00,SE,135,0.0,0.0,50,0.00,,---,0.00,VWS V14.01,2013-04-07 14:28:00,
2013-04-07 10:33:00,44.4,26.5,29.99,SSW,202,3.5,3.5,49,0.00,,---,0.00,VWS V14.01,2013-04-07 14:33:00,
2013-04-07 10:38:00,44.7,26.7,29.99,SSE,158,0.0,0.0,49,0.00,,---,0.00,VWS V14.01,2013-04-07 14:38:00,
2013-04-07 10:43:00,44.9,26.9,29.99,SE,135,6.4,6.4,49,0.00,,---,0.00,VWS V14.01,2013-04-07 14:43:00,
2013-04-07 10:48:00,44.9,26.4,29.99,SE,135,0.0,0.0,48,0.00,,---,0.00,VWS V14.01,2013-04-07 14:48:00,
2013-04-07 10:53:00,45.1,26.6,29.98,SE,135,0.0,0.0,48,0.00,,---,0.00,VWS V14.01,2013-04-07 14:53:00,
2013-04-07 10:59:00,45.3,26.8,29.98,ENE,68,0.0,0.0,48,0.00,,---,0.00,VWS V14.01,2013-04-07 14:59:00,
2013-04-07 11:04:00,45.5,27.0,29.98,WNW,292,0.0,0.0,48,0.00,,---,0.00,VWS V14.01,2013-04-07 15:04:00,
2013-04-07 11:09:00,46.2,27.6,29.97,South,180,0.0,0.0,48,0.00,,---,0.00,VWS V14.01,2013-04-07 15:09:00,
2013-04-07 11:14:00,46.7,28.1,29.97,South,180,1.5,1.5,48,0.00,,---,0.00,VWS V14.01,2013-04-07 15:14:00,
2013-04-07 11:19:00,47.4,28.7,29.97,NNE,22,0.0,0.0,48,0.00,,---,0.00,VWS V14.01,2013-04-07 15:19:00,
2013-04-07 11:24:00,48.3,29.0,29.96,SE,135,5.1,5.1,47,0.00,,---,0.00,VWS V14.01,2013-04-07 15:24:00,
2013-04-07 11:29:00,49.1,29.8,29.96,SE,135,7.8,7.8,47,0.00,,---,0.00,VWS V14.01,2013-04-07 15:29:00,
2013-04-07 11:34:00,50.1,30.1,29.96,SSW,202,0.0,5.3,46,0.00,,---,0.00,VWS V14.01,2013-04-07 15:34:00,
2013-04-07 11:39:00,50.5,30.5,29.96,SE,135,8.0,8.0,46,0.00,,---,0.00,VWS V14.01,2013-04-07 15:39:00,
2013-04-07 11:44:00,51.0,30.4,29.95,SE,135,6.7,6.7,45,0.00,,---,0.00,VWS V14.01,2013-04-07 15:44:00,
2013-04-07 11:49:00,51.6,30.4,29.95,South,180,0.0,0.0,44,0.00,,---,0.00,VWS V14.01,2013-04-07 15:49:00,
2013-04-07 11:54:00,52.3,31.0,29.96,SSE,158,1.3,1.3,44,0.00,,---,0.00,VWS V14.01,2013-04-07 15:54:00,
2013-04-07 11:59:00,52.8,31.5,29.95,SE,135,9.8,9.8,44,0.00,,---,0.00,VWS V14.01,2013-04-07 15:59:00,
2013-04-07 12:04:00,53.4,31.5,29.95,SSE,158,8.2,8.2,43,0.00,,---,0.00,VWS V14.01,2013-04-07 16:04:00,
2013-04-07 12:09:00,53.4,30.9,29.94,SE,135,6.9,6.9,42,0.00,,---,0.00,VWS V14.01,2013-04-07 16:09:00,
2013-04-07 12:14:00,53.9,31.4,29.94,SSE,158,5.1,5.1,42,0.00,,---,0.00,VWS V14.01,2013-04-07 16:14:00,
2013-04-07 12:19:00,54.3,31.7,29.93,SSE,158,0.0,0.0,42,0.00,,---,0.00,VWS V14.01,2013-04-07 16:19:00,
2013-04-07 12:24:00,55.0,32.3,29.93,SW,225,0.0,0.0,42,0.00,,---,0.00,VWS V14.01,2013-04-07 16:24:00,
2013-04-07 12:29:00,55.4,32.7,29.92,SE,135,2.6,2.6,42,0.00,,---,0.00,VWS V14.01,2013-04-07 16:29:00,
2013-04-07 12:34:00,56.1,33.3,29.92,SE,135,0.0,0.0,42,0.00,,---,0.00,VWS V14.01,2013-04-07 16:34:00,
2013-04-07 12:39:00,56.8,33.4,29.91,SE,135,0.0,0.0,41,0.00,,---,0.00,VWS V14.01,2013-04-07 16:39:00,
2013-04-07 12:44:00,57.2,33.7,29.91,SE,135,0.0,0.0,41,0.00,,---,0.00,VWS V14.01,2013-04-07 16:44:00,
2013-04-07 12:49:00,57.7,33.6,29.90,NW,315,0.0,0.0,40,0.00,,---,0.00,VWS V14.01,2013-04-07 16:49:00,
2013-04-07 12:55:00,58.1,33.9,29.90,SE,135,7.1,7.1,40,0.00,,---,0.00,VWS V14.01,2013-04-07 16:55:00,
2013-04-07 13:00:00,58.4,34.2,29.89,SE,135,7.1,7.1,40,0.00,,---,0.00,VWS V14.01,2013-04-07 17:00:00,
2013-04-07 13:05:00,58.8,33.9,29.90,SE,135,8.0,8.0,39,0.00,,---,0.00,VWS V14.01,2013-04-07 17:05:00,
2013-04-07 13:10:00,58.8,33.9,29.90,SE,135,8.9,8.9,39,0.00,,---,0.00,VWS V14.01,2013-04-07 17:10:00,
2013-04-07 13:15:00,58.8,33.3,29.90,SE,135,6.4,6.4,38,0.00,,---,0.00,VWS V14.01,2013-04-07 17:15:00,
2013-04-07 13:20:00,58.8,33.3,29.90,SE,135,11.1,11.1,38,0.00,,---,0.00,VWS V14.01,2013-04-07 17:20:00,
2013-04-07 13:25:00,58.8,33.3,29.90,SE,135,11.1,11.1,38,0.00,,---,0.00,VWS V14.01,2013-04-07 17:25:00,
2013-04-07 13:30:00,58.8,33.3,29.89,WSW,248,4.2,4.2,38,0.00,,---,0.00,VWS V14.01,2013-04-07 17:30:00,
2013-04-07 13:35:00,58.8,33.3,29.89,NW,315,0.0,0.0,38,0.00,,---,0.00,VWS V14.01,2013-04-07 17:35:00,
2013-04-07 13:40:00,58.8,33.3,29.90,SE,135,5.5,5.5,38,0.00,,---,0.00,VWS V14.01,2013-04-07 17:40:00,
2013-04-07 13:45:00,58.8,32.6,29.90,SE,135,9.8,9.8,37,0.00,,---,0.00,VWS V14.01,2013-04-07 17:45:00,
2013-04-07 13:50:00,58.2,32.1,29.89,SSE,158,13.8,13.8,37,0.00,,---,0.00,VWS V14.01,2013-04-07 17:50:00,
2013-04-07 13:55:00,57.9,31.8,29.89,SSE,158,0.0,0.0,37,0.00,,---,0.00,VWS V14.01,2013-04-07 17:55:00,
2013-04-07 14:00:00,57.3,31.3,29.90,SE,135,6.7,6.7,37,0.00,,---,0.00,VWS V14.01,2013-04-07 18:00:00,
2013-04-07 14:05:00,56.4,30.5,29.89,SE,135,9.6,9.6,37,0.00,,---,0.00,VWS V14.01,2013-04-07 18:05:00,
2013-04-07 14:10:00,56.1,30.9,29.89,SE,135,0.0,0.0,38,0.00,,---,0.00,VWS V14.01,2013-04-07 18:10:00,
2013-04-07 14:15:00,55.7,30.5,29.89,South,180,0.0,0.0,38,0.00,,---,0.00,VWS V14.01,2013-04-07 18:15:00,
2013-04-07 14:20:00,55.2,30.1,29.91,SSE,158,0.0,0.0,38,0.00,,---,0.00,VWS V14.01,2013-04-07 18:20:00,
2013-04-07 14:25:00,54.8,30.3,29.91,SSW,202,0.0,0.0,39,0.00,,---,0.00,VWS V14.01,2013-04-07 18:25:00,
2013-04-07 14:30:00,54.5,30.1,29.91,South,180,0.0,0.0,39,0.00,,---,0.00,VWS V14.01,2013-04-07 18:30:00,
2013-04-07 14:35:00,53.7,30.6,29.91,SE,135,10.2,10.2,41,0.00,,---,0.00,VWS V14.01,2013-04-07 18:35:00,
2013-04-07 14:40:00,53.2,30.7,29.92,NW,315,0.0,0.0,42,0.00,,---,0.00,VWS V14.01,2013-04-07 18:40:00,
2013-04-07 14:45:00,52.7,30.9,29.92,SSE,158,0.0,0.0,43,0.00,,---,0.00,VWS V14.01,2013-04-07 18:45:00,
2013-04-07 14:50:00,51.9,31.2,29.91,SE,135,2.6,2.6,45,0.00,,---,0.00,VWS V14.01,2013-04-07 18:50:00,
2013-04-07 14:55:00,51.4,31.9,29.91,SE,135,4.4,4.4,47,0.00,,---,0.00,VWS V14.01,2013-04-07 18:55:00,
2013-04-07 15:00:00,50.7,32.2,29.91,SSE,158,0.0,0.0,49,0.02,,---,0.02,VWS V14.01,2013-04-07 19:00:00,
2013-04-07 15:05:00,49.8,32.4,29.91,SE,135,0.0,0.0,51,0.02,,---,0.02,VWS V14.01,2013-04-07 19:05:00,
2013-04-07 15:10:00,49.2,31.9,29.91,SSE,158,0.0,0.0,51,0.02,,---,0.02,VWS V14.01,2013-04-07 19:10:00,
2013-04-07 15:15:00,49.1,32.7,29.90,SSE,158,0.0,0.0,53,0.02,,---,0.02,VWS V14.01,2013-04-07 19:15:00,
2013-04-07 15:20:00,49.1,33.2,29.90,SE,135,5.1,5.1,54,0.02,,---,0.02,VWS V14.01,2013-04-07 19:20:00,
2013-04-07 15:25:00,49.1,33.2,29.89,SSE,158,0.0,0.0,54,0.02,,---,0.02,VWS V14.01,2013-04-07 19:25:00,
2013-04-07 15:30:00,49.1,33.2,29.89,SE,135,0.0,0.0,54,0.02,,---,0.02,VWS V14.01,2013-04-07 19:30:00,
2013-04-07 15:35:00,49.2,33.3,29.89,SE,135,6.7,6.7,54,0.02,,---,0.02,VWS V14.01,2013-04-07 19:35:00,
2013-04-07 15:40:00,49.6,33.7,29.89,SE,135,3.1,3.1,54,0.02,,---,0.02,VWS V14.01,2013-04-07 19:40:00,
2013-04-07 15:45:00,49.6,33.7,29.89,SE,135,2.9,2.9,54,0.02,,---,0.02,VWS V14.01,2013-04-07 19:45:00,
2013-04-07 15:50:00,49.6,33.7,29.90,SE,135,7.3,7.3,54,0.02,,---,0.02,VWS V14.01,2013-04-07 19:50:00,
2013-04-07 15:55:00,49.6,33.2,29.89,SSE,158,0.0,10.7,53,0.02,,---,0.02,VWS V14.01,2013-04-07 19:55:00,
2013-04-07 16:00:00,49.6,33.2,29.89,SSW,202,4.4,4.4,53,0.00,,---,0.02,VWS V14.01,2013-04-07 20:00:00,
2013-04-07 16:05:00,49.6,33.2,29.88,SSE,158,0.0,0.0,53,0.00,,---,0.02,VWS V14.01,2013-04-07 20:05:00,
2013-04-07 16:10:00,49.6,33.2,29.88,SE,135,11.6,11.6,53,0.00,,---,0.02,VWS V14.01,2013-04-07 20:10:00,
2013-04-07 16:15:00,49.8,33.4,29.89,SSE,158,0.0,0.0,53,0.00,,---,0.02,VWS V14.01,2013-04-07 20:15:00,
2013-04-07 16:20:00,50.1,33.7,29.88,SSE,158,0.0,0.0,53,0.00,,---,0.02,VWS V14.01,2013-04-07 20:20:00,
2013-04-07 16:25:00,50.5,34.0,29.88,SSW,202,4.2,4.2,53,0.00,,---,0.02,VWS V14.01,2013-04-07 20:25:00,
2013-04-07 16:30:00,50.5,34.0,29.87,NNW,338,0.0,0.0,53,0.00,,---,0.02,VWS V14.01,2013-04-07 20:30:00,
2013-04-07 16:35:00,51.0,34.0,29.88,SE,135,2.6,2.6,52,0.00,,---,0.02,VWS V14.01,2013-04-07 20:35:00,
2013-04-07 16:40:00,51.8,34.8,29.87,SE,135,7.8,7.8,52,0.00,,---,0.00,VWS V14.01,2013-04-07 20:40:00,
2013-04-07 16:45:00,51.9,34.8,29.88,SE,135,0.0,0.0,52,0.00,,---,0.02,VWS V14.01,2013-04-07 20:45:00,
2013-04-07 16:50:00,52.8,35.2,29.87,SSE,158,6.0,6.0,51,0.00,,---,0.02,VWS V14.01,2013-04-07 20:50:00,
2013-04-07 16:55:00,53.4,35.2,29.86,South,180,0.0,0.0,50,0.00,,---,0.02,VWS V14.01,2013-04-07 20:55:00,
2013-04-07 17:00:00,53.9,35.2,29.86,SE,135,8.5,8.5,49,0.00,,---,0.02,VWS V14.01,2013-04-07 21:00:00,
2013-04-07 17:05:00,54.3,35.6,29.86,ESE,112,4.9,4.9,49,0.00,,---,0.02,VWS V14.01,2013-04-07 21:05:00,
2013-04-07 17:10:00,54.5,35.2,29.86,South,180,7.6,7.6,48,0.00,,---,0.02,VWS V14.01,2013-04-07 21:10:00,
2013-04-07 17:15:00,54.6,35.3,29.86,SSE,158,8.2,8.2,48,0.00,,---,0.02,VWS V14.01,2013-04-07 21:15:00,
2013-04-07 17:20:00,54.8,35.0,29.86,SE,135,0.0,0.0,47,0.00,,---,0.02,VWS V14.01,2013-04-07 21:20:00,
2013-04-07 17:25:00,55.2,35.3,29.86,SE,135,0.0,0.0,47,0.00,,---,0.02,VWS V14.01,2013-04-07 21:25:00,
2013-04-07 17:30:00,55.2,35.3,29.87,South,180,2.0,2.0,47,0.00,,---,0.02,VWS V14.01,2013-04-07 21:30:00,
2013-04-07 17:35:00,55.2,35.3,29.86,South,180,0.8,0.8,47,0.00,,---,0.02,VWS V14.01,2013-04-07 21:35:00,
2013-04-07 17:40:00,55.0,35.2,29.86,SE,135,8.0,8.0,47,0.00,,---,0.02,VWS V14.01,2013-04-07 21:40:00,
2013-04-07 17:45:00,55.0,35.2,29.86,South,180,2.0,2.0,47,0.00,,---,0.02,VWS V14.01,2013-04-07 21:45:00,
2013-04-07 17:50:00,54.8,35.0,29.86,SE,135,5.5,5.5,47,0.00,,---,0.02,VWS V14.01,2013-04-07 21:50:00,
2013-04-07 17:55:00,54.6,34.8,29.86,SE,135,7.8,7.8,47,0.00,,---,0.02,VWS V14.01,2013-04-07 21:55:00,
2013-04-07 18:00:00,54.5,34.7,29.87,SSE,158,9.1,9.1,47,0.00,,---,0.02,VWS V14.01,2013-04-07 22:00:00,
2013-04-07 18:05:00,54.6,34.8,29.86,NW,315,0.0,0.0,47,0.00,,---,0.02,VWS V14.01,2013-04-07 22:05:00,
2013-04-07 18:10:00,54.8,35.0,29.86,SE,135,0.0,0.0,47,0.00,,---,0.02,VWS V14.01,2013-04-07 22:10:00,
2013-04-07 18:15:00,54.6,34.8,29.87,South,180,0.0,0.0,47,0.00,,---,0.02,VWS V14.01,2013-04-07 22:15:00,
2013-04-07 18:20:00,54.6,34.8,29.87,WSW,248,0.0,0.0,47,0.00,,---,0.02,VWS V14.01,2013-04-07 22:20:00,
2013-04-07 18:25:00,54.3,34.5,29.87,SSE,158,5.8,5.8,47,0.00,,---,0.02,VWS V14.01,2013-04-07 22:25:00,
2013-04-07 18:30:00,54.3,34.5,29.87,SE,135,3.5,3.5,47,0.00,,---,0.02,VWS V14.01,2013-04-07 22:30:00,
2013-04-07 18:36:00,54.1,34.3,29.87,SE,135,9.1,9.1,47,0.00,,---,0.02,VWS V14.01,2013-04-07 22:36:00,
2013-04-07 18:41:00,54.1,34.3,29.87,SE,135,2.0,2.0,47,0.00,,---,0.02,VWS V14.01,2013-04-07 22:41:00,
2013-04-07 18:45:00,53.9,34.2,29.88,SE,135,4.9,4.9,47,0.00,,---,0.02,VWS V14.01,2013-04-07 22:45:00,
2013-04-07 18:50:00,53.7,34.0,29.88,SSE,158,0.0,0.0,47,0.00,,---,0.02,VWS V14.01,2013-04-07 22:50:00,
2013-04-07 18:56:00,53.4,34.2,29.88,NW,315,0.0,0.0,48,0.00,,---,0.02,VWS V14.01,2013-04-07 22:56:00,
2013-04-07 19:01:00,53.4,34.2,29.88,South,180,0.0,0.0,48,0.00,,---,0.02,VWS V14.01,2013-04-07 23:01:00,
2013-04-07 19:06:00,53.4,34.2,29.88,SE,135,0.0,0.0,48,0.00,,---,0.02,VWS V14.01,2013-04-07 23:06:00,
2013-04-07 19:11:00,53.2,34.0,29.88,SE,135,4.4,4.4,48,0.00,,---,0.02,VWS V14.01,2013-04-07 23:11:00,
2013-04-07 19:16:00,53.2,34.0,29.88,SSE,158,0.0,0.0,48,0.00,,---,0.02,VWS V14.01,2013-04-07 23:16:00,
2013-04-07 19:21:00,52.8,34.2,29.89,SE,135,0.0,0.0,49,0.00,,---,0.02,VWS V14.01,2013-04-07 23:21:00,
2013-04-07 19:26:00,52.8,34.2,29.89,SE,135,0.0,0.0,49,0.00,,---,0.02,VWS V14.01,2013-04-07 23:26:00,
2013-04-07 19:31:00,52.7,34.1,29.89,ENE,68,0.0,0.0,49,0.00,,---,0.02,VWS V14.01,2013-04-07 23:31:00,
2013-04-07 19:36:00,52.5,33.9,29.89,SE,135,0.0,0.0,49,0.00,,---,0.02,VWS V14.01,2013-04-07 23:36:00,
2013-04-07 19:41:00,52.3,33.7,29.89,SSE,158,0.0,0.0,49,0.00,,---,0.02,VWS V14.01,2013-04-07 23:41:00,
2013-04-07 19:46:00,52.1,33.5,29.89,NW,315,0.0,0.0,49,0.00,,---,0.02,VWS V14.01,2013-04-07 23:46:00,
2013-04-07 19:51:00,51.9,33.9,29.89,NE,45,0.0,0.0,50,0.00,,---,0.02,VWS V14.01,2013-04-07 23:51:00,
2013-04-07 19:56:00,51.6,33.6,29.89,South,180,0.0,0.0,50,0.00,,---,0.02,VWS V14.01,2013-04-07 23:56:00,
2013-04-07 20:01:00,51.4,33.4,29.89,SE,135,0.0,0.0,50,0.00,,---,0.02,VWS V14.01,2013-04-08 00:01:00,
2013-04-07 20:07:00,51.4,33.4,29.90,North,0,0.0,0.0,50,0.00,,---,0.02,VWS V14.01,2013-04-08 00:07:00,
2013-04-07 20:12:00,51.2,33.7,29.90,NW,315,0.0,0.0,51,0.00,,---,0.02,VWS V14.01,2013-04-08 00:12:00,
2013-04-07 20:17:00,50.9,33.4,29.90,WNW,292,0.0,0.0,51,0.00,,---,0.02,VWS V14.01,2013-04-08 00:17:00,
2013-04-07 20:22:00,50.9,33.4,29.91,ENE,68,0.0,0.0,51,0.00,,---,0.02,VWS V14.01,2013-04-08 00:22:00,
2013-04-07 20:27:00,50.7,33.2,29.91,NE,45,0.0,0.0,51,0.00,,---,0.02,VWS V14.01,2013-04-08 00:27:00,
2013-04-07 20:32:00,50.5,33.5,29.92,NNW,338,5.8,5.8,52,0.00,,---,0.02,VWS V14.01,2013-04-08 00:32:00,
2013-04-07 20:37:00,50.5,33.5,29.92,West,270,0.0,0.0,52,0.00,,---,0.02,VWS V14.01,2013-04-08 00:37:00,
2013-04-07 20:42:00,50.3,33.8,29.92,NW,315,0.0,0.0,53,0.00,,---,0.02,VWS V14.01,2013-04-08 00:42:00,
2013-04-07 20:47:00,50.3,33.8,29.92,WSW,248,0.0,0.0,53,0.00,,---,0.02,VWS V14.01,2013-04-08 00:47:00,
2013-04-07 20:52:00,50.3,34.8,29.92,NW,315,0.0,0.0,55,0.00,,---,0.02,VWS V14.01,2013-04-08 00:52:00,
2013-04-07 20:57:00,50.1,35.0,29.93,WNW,292,0.0,0.0,56,0.00,,---,0.02,VWS V14.01,2013-04-08 00:57:00,
2013-04-07 21:02:00,50.1,35.9,29.94,NNE,22,10.9,10.9,58,0.00,,---,0.02,VWS V14.01,2013-04-08 01:02:00,
2013-04-07 21:07:00,49.8,36.1,29.94,NNW,338,1.3,1.3,59,0.00,,---,0.02,VWS V14.01,2013-04-08 01:07:00,
2013-04-07 21:12:00,49.8,36.5,29.94,North,0,0.0,0.0,60,0.00,,---,0.02,VWS V14.01,2013-04-08 01:12:00,
2013-04-07 21:17:00,49.6,36.3,29.94,NNE,22,0.0,0.0,60,0.00,,---,0.02,VWS V14.01,2013-04-08 01:17:00,
2013-04-07 21:22:00,49.2,36.3,29.94,NNW,338,0.0,0.0,61,0.00,,---,0.02,VWS V14.01,2013-04-08 01:22:00,
2013-04-07 21:27:00,49.2,35.9,29.94,WNW,292,0.0,0.0,60,0.00,,---,0.02,VWS V14.01,2013-04-08 01:27:00,
2013-04-07 21:32:00,49.1,36.2,29.95,NW,315,0.0,0.0,61,0.00,,---,0.02,VWS V14.01,2013-04-08 01:32:00,
2013-04-07 21:37:00,48.7,35.9,29.95,WNW,292,0.0,0.0,61,0.00,,---,0.02,VWS V14.01,2013-04-08 01:37:00,
2013-04-07 21:42:00,48.5,36.1,29.95,NNE,22,0.0,0.0,62,0.00,,---,0.02,VWS V14.01,2013-04-08 01:42:00,
2013-04-07 21:47:00,48.3,35.9,29.95,NW,315,0.0,0.0,62,0.00,,---,0.02,VWS V14.01,2013-04-08 01:47:00,
2013-04-07 21:52:00,48.0,35.6,29.96,North,0,0.0,0.0,62,0.00,,---,0.02,VWS V14.01,2013-04-08 01:52:00,
2013-04-07 21:57:00,47.8,35.4,29.96,NNW,338,0.0,2.9,62,0.00,,---,0.02,VWS V14.01,2013-04-08 01:57:00,
2013-04-07 22:02:00,47.8,35.4,29.96,NNW,338,0.0,0.0,62,0.00,,---,0.02,VWS V14.01,2013-04-08 02:02:00,
2013-04-07 22:07:00,47.4,35.5,29.96,NNW,338,0.0,0.0,63,0.00,,---,0.02,VWS V14.01,2013-04-08 02:07:00,
2013-04-07 22:12:00,47.3,35.4,29.97,NNW,338,0.0,0.0,63,0.00,,---,0.02,VWS V14.01,2013-04-08 02:12:00,
2013-04-07 22:17:00,47.1,35.2,29.97,NW,315,0.0,0.0,63,0.00,,---,0.02,VWS V14.01,2013-04-08 02:17:00,
2013-04-07 22:22:00,46.9,35.0,29.97,NW,315,0.0,0.0,63,0.00,,---,0.02,VWS V14.01,2013-04-08 02:22:00,
2013-04-07 22:27:00,46.7,34.8,29.97,NW,315,0.0,0.0,63,0.00,,---,0.02,VWS V14.01,2013-04-08 02:27:00,
2013-04-07 22:32:00,46.5,34.6,29.98,NNW,338,0.0,0.0,63,0.00,,---,0.02,VWS V14.01,2013-04-08 02:32:00,
2013-04-07 22:37:00,46.2,34.3,29.98,NW,315,0.0,0.0,63,0.00,,---,0.02,VWS V14.01,2013-04-08 02:37:00,
2013-04-07 22:42:00,46.0,34.1,29.98,SE,135,0.0,0.0,63,0.00,,---,0.02,VWS V14.01,2013-04-08 02:42:00,
2013-04-07 22:47:00,45.8,34.3,29.99,North,0,2.4,2.4,64,0.00,,---,0.02,VWS V14.01,2013-04-08 02:47:00,
2013-04-07 22:52:00,45.6,34.1,29.99,NNW,338,0.0,0.0,64,0.00,,---,0.02,VWS V14.01,2013-04-08 02:52:00,
2013-04-07 22:57:00,45.3,33.9,29.99,North,0,0.0,0.0,64,0.00,,---,0.02,VWS V14.01,2013-04-08 02:57:00,
2013-04-07 23:03:00,45.1,33.7,29.99,WNW,292,0.0,0.0,64,0.00,,---,0.02,VWS V14.01,2013-04-08 03:03:00,
2013-04-07 23:08:00,44.9,33.5,29.99,NW,315,2.9,2.9,64,0.00,,---,0.02,VWS V14.01,2013-04-08 03:08:00,
2013-04-07 23:13:00,44.6,33.2,29.99,NNW,338,8.5,8.5,64,0.00,,---,0.02,VWS V14.01,2013-04-08 03:13:00,
2013-04-07 23:18:00,44.4,33.0,29.99,NE,45,8.0,8.0,64,0.00,,---,0.02,VWS V14.01,2013-04-08 03:18:00,
2013-04-07 23:23:00,44.2,33.2,29.99,NW,315,8.2,8.2,65,0.00,,---,0.02,VWS V14.01,2013-04-08 03:23:00,
2013-04-07 23:28:00,43.7,32.7,29.99,WSW,248,0.0,0.0,65,0.00,,---,0.02,VWS V14.01,2013-04-08 03:28:00,
2013-04-07 23:33:00,43.5,32.5,29.99,NNW,338,3.5,3.5,65,0.00,,---,0.02,VWS V14.01,2013-04-08 03:33:00,
2013-04-07 23:38:00,43.3,32.3,29.99,WNW,292,0.0,0.0,65,0.00,,---,0.02,VWS V14.01,2013-04-08 03:38:00,
2013-04-07 23:43:00,42.9,32.0,30.00,NE,45,0.0,0.0,65,0.00,,---,0.02,VWS V14.01,2013-04-08 03:43:00,
2013-04-07 23:48:00,42.9,32.0,30.00,WNW,292,0.0,0.0,65,0.00,,---,0.02,VWS V14.01,2013-04-08 03:48:00,
2013-04-07 23:53:00,42.6,31.7,30.00,NW,315,0.0,0.0,65,0.00,,---,0.02,VWS V14.01,2013-04-08 03:53:00,
2013-04-07 23:58:00,42.4,31.5,30.01,WNW,292,0.0,0.0,65,0.00,,---,0.02,VWS V14.01,2013-04-08 03:58:00,